Torna al catalogo

CZ-6A DEB

AttivoPO
NORAD 55207·DEBRIS·🇨🇳 China

Lanciato Nov 11, 2022 da Taiyuan Satellite Launch Center

Loading…

Prossimi Passaggi (prossime 24 ore)

TLE

AggiornatoSource: Space-Track

Epoca: Sep 13, 2026, 16:28 UTC

1 55207U 22151VY  26256.68622197  .00011726  00000-0  13361-2 0  9995
2 55207  98.6332 340.5470 0055585 331.9189  27.9027 14.85213167198842

Traccia CZ-6A DEB in tempo reale con AllMySat

Download on the App Store